| time (UTC) | temp C | wind direction | speed KPH | gust KPH | rain 1hr cm | rain 24hr cm | rain mn cm | humidity % | barometer mb |
| 20260906030013 | 24 | 95 | 3.2 | 3.2 | 0.03 | 1.45 | 1.45 | 88 | 976.3 |
| 20260906024513 | 25 | 86 | 3.2 | 4.8 | 0.00 | 1.42 | 1.42 | 84 | 976.0 |
| 20260906022943 | 26 | 192 | 1.6 | 3.2 | 0.00 | 1.42 | 1.42 | 76 | 975.3 |
| 20260906021443 | 26 | 195 | 1.6 | 3.2 | 0.00 | 1.42 | 1.42 | 74 | 974.9 |
| 20260906015943 | 27 | 198 | 1.6 | 1.6 | 0.00 | 1.42 | 1.42 | 72 | 974.9 |
| 20260906014413 | 20 | 104 | 4.8 | 8.0 | 0.00 | 1.42 | 1.42 | 91 | 976.0 |
| 20260906012913 | 20 | 104 | 4.8 | 8.0 | 0.00 | 1.42 | 1.42 | 91 | 976.0 |
| 20260906011343 | 20 | 104 | 4.8 | 8.0 | 0.00 | 1.42 | 1.42 | 91 | 976.0 |
| 20260906005813 | 20 | 104 | 4.8 | 8.0 | 0.33 | 1.42 | 1.42 | 91 | 976.0 |
| 20260906004313 | 20 | 104 | 4.8 | 8.0 | 1.22 | 1.42 | 1.42 | 91 | 976.0 |
| 20260906002743 | 20 | 104 | 4.8 | 8.0 | 1.40 | 1.42 | 1.42 | 91 | 976.0 |
| 20260906001243 | 20 | 104 | 4.8 | 8.0 | 1.42 | 1.42 | 1.42 | 91 | 976.0 |
| 20260905235743 | 22 | 31 | 4.8 | 46.7 | 0.61 | 0.61 | 0.61 | 80 | 975.6 |
| 20260905234213 | 25 | 16 | 1.6 | 16.1 | 0.20 | 0.20 | 0.20 | 80 | 974.6 |
| 20260905232713 | 30 | 77 | 4.8 | 9.7 | 0.03 | 0.03 | 0.03 | 59 | 975.1 |
| 20260905231143 | 33 | 89 | 1.6 | 3.2 | 0.00 | 0.00 | 0.00 | 58 | 974.6 |
| 20260905225613 | 33 | 214 | 0.0 | 3.2 | 0.00 | 0.00 | 0.00 | 55 | 974.3 |
| 20260905224043 | 32 | 212 | 3.2 | 3.2 | 0.00 | 0.00 | 0.00 | 58 | 974.6 |
| 20260905222543 | 32 | 278 | 0.0 | 1.6 | 0.00 | 0.00 | 0.00 | 59 | 974.3 |
| 20260905221301 | 32 | 139 | 1.6 | 1.6 | 0.00 | 0.00 | 0.00 | 59 | 974.4 |
| 20260905221013 | 32 | 139 | 1.6 | 1.6 | 0.00 | 0.00 | 0.00 | 59 | 974.4 |
| 20260905215443 | 33 | 217 | 0.0 | 0.0 | 0.00 | 0.00 | 0.00 | 57 | 974.6 |
| 20260905213913 | 34 | 121 | 0.0 | 3.2 | 0.00 | 0.00 | 0.00 | 54 | 974.4 |
| 20260905212343 | 35 | 172 | 1.6 | 3.2 | 0.00 | 0.00 | 0.00 | 50 | 974.6 |
| 20260905210843 | 35 | 113 | 0.0 | 1.6 | 0.00 | 0.00 | 0.00 | 50 | 974.7 |
| 20260905205343 | 35 | 56 | 1.6 | 4.8 | 0.00 | 0.00 | 0.00 | 51 | 974.9 |
| 20260905203813 | 33 | 72 | 0.0 | 3.2 | 0.00 | 0.00 | 0.00 | 52 | 975.0 |
| 20260905202313 | 34 | 64 | 1.6 | 1.6 | 0.00 | 0.00 | 0.00 | 53 | 974.9 |
| 20260905200743 | 35 | 225 | 0.0 | 4.8 | 0.00 | 0.00 | 0.00 | 48 | 975.0 |
| 20260905195243 | 34 | 359 | 0.0 | 3.2 | 0.00 | 0.00 | 0.00 | 53 | 975.6 |
| 20260905193713 | 34 | 57 | 0.0 | 3.2 | 0.00 | 0.00 | 0.00 | 49 | 976.0 |
| 20260905192143 | 33 | 120 | 1.6 | 3.2 | 0.00 | 0.10 | 0.00 | 52 | 976.0 |
| 20260905190613 | 36 | 38 | 0.0 | 3.2 | 0.00 | 0.30 | 0.00 | 49 | 976.0 |
| 20260905185043 | 35 | 307 | 0.0 | 4.8 | 0.00 | 0.30 | 0.00 | 47 | 976.3 |
| 20260905183513 | 34 | 146 | 1.6 | 3.2 | 0.00 | 0.30 | 0.00 | 51 | 976.3 |
| 20260905181943 | 33 | 58 | 1.6 | 3.2 | 0.00 | 0.30 | 0.00 | 53 | 976.9 |
| 20260905180443 | 33 | 68 | 1.6 | 3.2 | 0.00 | 0.30 | 0.00 | 52 | 977.0 |
| 20260905174913 | 34 | 147 | 0.0 | 9.7 | 0.00 | 0.30 | 0.00 | 50 | 977.0 |
| 20260905173413 | 34 | 297 | 3.2 | 3.2 | 0.00 | 0.30 | 0.00 | 50 | 977.3 |
| 20260905171843 | 34 | 326 | 1.6 | 1.6 | 0.00 | 0.30 | 0.00 | 55 | 977.3 |
| 20260905170313 | 34 | 82 | 4.8 | 4.8 | 0.00 | 0.30 | 0.00 | 56 | 977.6 |
| 20260905164743 | 33 | 20 | 0.0 | 3.2 | 0.00 | 0.30 | 0.00 | 57 | 977.3 |
| 20260905163213 | 32 | 72 | 1.6 | 3.2 | 0.00 | 0.30 | 0.00 | 62 | 977.6 |
| 20260905161643 | 32 | 102 | 4.8 | 4.8 | 0.00 | 0.30 | 0.00 | 62 | 977.6 |
| 20260905160113 | 32 | 46 | 3.2 | 4.8 | 0.00 | 0.30 | 0.00 | 63 | 977.6 |
| 20260905154637 | 31 | 77 | 3.2 | 3.2 | 0.00 | 0.30 | 0.00 | 67 | 978.0 |
| 20260905154543 | 31 | 77 | 3.2 | 3.2 | 0.00 | 0.30 | 0.00 | 67 | 978.0 |
| 20260905153043 | 31 | 59 | 3.2 | 3.2 | 0.00 | 0.30 | 0.00 | 67 | 978.3 |
| 20260905151512 | 31 | 122 | 0.0 | 1.6 | 0.00 | 0.30 | 0.00 | 66 | 978.3 |
| 20260905145943 | 30 | 85 | 1.6 | 3.2 | 0.00 | 0.30 | 0.00 | 71 | 978.3 |
| 20260905144412 | 28 | 9 | 0.0 | 1.6 | 0.00 | 0.30 | 0.00 | 74 | 978.3 |
| 20260905142912 | 27 | 19 | 1.6 | 3.2 | 0.00 | 0.30 | 0.00 | 83 | 978.3 |
| 20260905141412 | 26 | 238 | 1.6 | 3.2 | 0.00 | 0.30 | 0.00 | 84 | 978.7 |
| 20260905135912 | 26 | 257 | 1.6 | 3.2 | 0.00 | 0.30 | 0.00 | 85 | 978.7 |
| 20260905134420 | 26 | 139 | 0.0 | 1.6 | 0.00 | 0.30 | 0.00 | 85 | 978.3 |
| 20260905134342 | 26 | 139 | 0.0 | 1.6 | 0.00 | 0.30 | 0.00 | 85 | 978.3 |
| 20260905132915 | 26 | 269 | 0.0 | 1.6 | 0.00 | 0.30 | 0.00 | 84 | 978.3 |
| 20260905132842 | 26 | 269 | 0.0 | 1.6 | 0.00 | 0.30 | 0.00 | 84 | 978.3 |
| 20260905131312 | 26 | 225 | 0.0 | 3.2 | 0.00 | 0.30 | 0.00 | 82 | 978.3 |
| 20260905125742 | 25 | 322 | 0.0 | 1.6 | 0.00 | 0.30 | 0.00 | 82 | 978.3 |
| 20260905124242 | 25 | 238 | 0.0 | 1.6 | 0.00 | 0.30 | 0.00 | 82 | 978.7 |
| 20260905122712 | 25 | 216 | 0.0 | 1.6 | 0.00 | 0.30 | 0.00 | 83 | 978.3 |
| 20260905121207 | 25 | 216 | 0.0 | 0.0 | 0.00 | 0.30 | 0.00 | 81 | 978.0 |
| 20260905121142 | 25 | 216 | 0.0 | 0.0 | 0.00 | 0.30 | 0.00 | 81 | 978.0 |
| 20260905115612 | 26 | 180 | 0.0 | 1.6 | 0.00 | 0.30 | 0.00 | 77 | 978.0 |
| 20260905114042 | 25 | 45 | 3.2 | 3.2 | 0.00 | 0.30 | 0.00 | 80 | 977.6 |
| 20260905112512 | 25 | 81 | 1.6 | 3.2 | 0.00 | 0.30 | 0.00 | 82 | 977.6 |
| 20260905111012 | 25 | 57 | 1.6 | 3.2 | 0.00 | 0.30 | 0.00 | 82 | 977.3 |
| 20260905105512 | 25 | 48 | 3.2 | 3.2 | 0.00 | 0.30 | 0.00 | 80 | 977.3 |
| 20260905103942 | 25 | 55 | 0.0 | 1.6 | 0.00 | 0.30 | 0.00 | 80 | 977.0 |
| 20260905102412 | 25 | 36 | 1.6 | 3.2 | 0.00 | 0.30 | 0.00 | 81 | 977.0 |
| 20260905100842 | 25 | 34 | 1.6 | 3.2 | 0.00 | 0.30 | 0.00 | 84 | 977.0 |
| 20260905095312 | 25 | 30 | 0.0 | 0.0 | 0.00 | 0.30 | 0.00 | 83 | 977.0 |
| 20260905093812 | 25 | 136 | 0.0 | 1.6 | 0.00 | 0.30 | 0.00 | 81 | 977.0 |
| 20260905092346 | 26 | 183 | 0.0 | 1.6 | 0.00 | 0.30 | 0.00 | 79 | 977.0 |
| 20260905092312 | 26 | 183 | 0.0 | 1.6 | 0.00 | 0.30 | 0.00 | 79 | 977.0 |
| 20260905090742 | 26 | 93 | 1.6 | 1.6 | 0.00 | 0.30 | 0.00 | 78 | 977.0 |
| 20260905085252 | 26 | 211 | 1.6 | 3.2 | 0.00 | 0.30 | 0.00 | 76 | 977.0 |
| 20260905085212 | 26 | 211 | 1.6 | 3.2 | 0.00 | 0.30 | 0.00 | 76 | 977.0 |
| 20260905083642 | 26 | 49 | 0.0 | 1.6 | 0.00 | 0.30 | 0.00 | 72 | 977.0 |
| 20260905082142 | 27 | 216 | 0.0 | 1.6 | 0.00 | 0.30 | 0.00 | 70 | 977.0 |
| 20260905080612 | 27 | 3 | 0.0 | 3.2 | 0.00 | 0.30 | 0.00 | 69 | 977.0 |
| 20260905075042 | 27 | 37 | 1.6 | 3.2 | 0.00 | 0.30 | 0.00 | 70 | 977.0 |
| 20260905073512 | 27 | 250 | 0.0 | 0.0 | 0.00 | 0.30 | 0.00 | 70 | 977.0 |
| 20260905072012 | 27 | 96 | 0.0 | 1.6 | 0.00 | 0.30 | 0.00 | 71 | 977.0 |
| 20260905070512 | 27 | 77 | 0.0 | 1.6 | 0.00 | 0.30 | 0.00 | 73 | 977.3 |
| 20260905064942 | 27 | 50 | 0.0 | 1.6 | 0.00 | 0.30 | 0.00 | 73 | 977.3 |
| 20260905063412 | 27 | 145 | 0.0 | 0.0 | 0.00 | 0.30 | 0.00 | 73 | 977.6 |
| 20260905061944 | 27 | 95 | 0.0 | 1.6 | 0.00 | 0.30 | 0.00 | 72 | 977.6 |
| 20260905061912 | 27 | 95 | 0.0 | 1.6 | 0.00 | 0.30 | 0.00 | 72 | 977.6 |
| 20260905060342 | 27 | 53 | 1.6 | 3.2 | 0.00 | 0.30 | 0.00 | 73 | 977.6 |
| 20260905054848 | 27 | 74 | 1.6 | 3.2 | 0.00 | 0.30 | 0.00 | 74 | 977.6 |
| 20260905054812 | 27 | 74 | 1.6 | 3.2 | 0.00 | 0.30 | 0.00 | 74 | 977.6 |
| 20260905053312 | 27 | 44 | 0.0 | 3.2 | 0.00 | 0.30 | 0.00 | 73 | 977.3 |
| 20260905051742 | 27 | 56 | 1.6 | 1.6 | 0.00 | 0.30 | 0.00 | 73 | 977.6 |
| 20260905050242 | 27 | 154 | 0.0 | 0.0 | 0.00 | 0.30 | 0.00 | 72 | 977.3 |
| 20260905044712 | 28 | 262 | 0.0 | 0.0 | 0.00 | 0.30 | 0.30 | 71 | 977.3 |
| 20260905043212 | 27 | 132 | 0.0 | 0.0 | 0.00 | 0.30 | 0.30 | 71 | 977.6 |
| 20260905041801 | 28 | 188 | 1.6 | 3.2 | 0.00 | 0.30 | 0.30 | 70 | 977.6 |
| 20260905041715 | 28 | 188 | 1.6 | 3.2 | 0.00 | 0.30 | 0.30 | 70 | 977.6 |
| 20260905041642 | 28 | 188 | 1.6 | 3.2 | 0.00 | 0.30 | 0.30 | 70 | 977.6 |
| 20260905040112 | 28 | 212 | 0.0 | 1.6 | 0.00 | 0.30 | 0.30 | 69 | 977.6 |
| 20260905034542 | 28 | 225 | 0.0 | 3.2 | 0.00 | 0.30 | 0.30 | 69 | 978.0 |
| 20260905033012 | 28 | 315 | 0.0 | 1.6 | 0.00 | 0.30 | 0.30 | 69 | 978.0 |
| 20260905031442 | 28 | 252 | 1.6 | 3.2 | 0.00 | 0.30 | 0.30 | 69 | 978.0 |